Notices

What's New in latest Release from April 7th, 2021:

- Updated Glossary, including Speed of Maximum Gust, and Total Hourly Precipitation

- Updated national and regional climate services offices contacts and prices information

- Addition of station inventory lists for 1981-2010, 1971-2000, and 1961-1990 Normals.

If you haven't already, please take our survey and provide feedback about our website: https://eccc.sondage-survey.ca/f/LanguageSelection.aspx?s=442ca660-fcf1-47c0-95a9-59707d6fd709

Hourly Data Report for October 24, 2019

SAINT JOHN A
NEW BRUNSWICK
Current Station Operator: NAVCAN

45°18'58.000" N
65°53'24.000" W
108.80 m
8104901
71609
YSJ

Download Data

Hourly Data (October 2019)
Hourly Data Report for October 24, 2019
TIME
LST
Temp Definition
°C
Dew Point Definition
°C
Rel Hum Definition
%
Precip. Amount Definition
mm

Wind Dir Definition
10's deg

Wind Spd Definition
km/h
Visibility Definition
km
Stn Press Definition
kPa
Hmdx Definition


Wind Chill Definition


Weather Definition


00:00 7.7 6.4 91   29 10 24.1 99.89     LegendNANA
01:00 7.4 6.3 92   28 10 24.1 100.00     LegendNANA
02:00 7.3 6.3 94   26 15 24.1 100.12     Clear
03:00 6.9 6.1 95   26 11 24.1 100.18     LegendNANA
04:00 6.8 5.5 92   27 11 24.1 100.30     LegendNANA
05:00 6.8 5.2 90   25 10 24.1 100.38     Clear
06:00 6.7 4.7 87   25 9 24.1 100.49     LegendNANA
07:00 6.5 4.6 88   28 13 24.1 100.57     LegendNANA
08:00 7.5 4.8 82   27 12 24.1 100.70     Clear
09:00 9.3 5.0 74   27 14 24.1 100.75     LegendNANA
10:00 10.8 4.5 65   28 19 24.1 100.77     LegendNANA
11:00 12.7 4.6 58   26 14 24.1 100.78     Mainly Clear
12:00 13.3 3.7 52   27 23 24.1 100.76     LegendNANA
13:00 14.2 3.9 50   25 17 24.1 100.70     LegendNANA
14:00 14.2 5.5 55   22 28 24.1 100.66     Mainly Clear
15:00 13.7 4.7 55   22 31 24.1 100.70     LegendNANA
16:00 13.3 4.7 56   23 24 24.1 100.76     LegendNANA
17:00 11.6 5.0 64   22 26 24.1 100.75     Mainly Clear
18:00 11.1 4.8 65   23 24 24.1 100.72     LegendNANA
19:00 10.9 5.1 67   23 19 24.1 100.77     LegendNANA
20:00 10.6 6.6 77   22 22 24.1 100.76     Mainly Clear
21:00 10.5 7.1 79   23 21 24.1 100.81     LegendNANA
22:00 10.3 7.3 81   22 22 24.1 100.83     LegendNANA
23:00 10.2 7.7 84   22 19 24.1 100.82     Mainly Clear

Notes on Data Quality.

Legend

  • E = Estimated
  • M = Missing
  • NA = Not Available*
  • [empty] = Indicates an unobserved value
Date modified: